SCP
0 0 0 0 0 0 0 0 0 0 0 0 0 0 0 0 0 0 0 0 0 0
0 0 0 0 0 0 0 0 0 0 0 0 0 0 0 0 0 0 0 0 0 0
0 0 0 0 0 0 0 0 0 0 0 0 0 0 0 0 0 0 0 0 0 0
0 0 0 0 0 0 0 0 0 0 0 0 0 -0 -0 0 0 0 0 0 0 0
0 0 0 0 0 0 0 0 0 0 0 0 0 -0 -0 0 0 0 0 0 0 0
0 0 0 0 0 0 0 0 0 0 0 0 -0 -0 -0 0 0 0 0 0 0 0
0 0 0 0 0 0 0 0 0 0 0 0 -0 -0 -0 -0 0 0 0 0 0 0
0 0 0 0 0 0 0 0 0 0 0 0 0 0 -0 0 0 0 0 0 0 0
0 0 0 0 0 0 0 0 0 0 0 -0 -0 -0 0 0 0 0 0 0 0 0
0 0 0 0 -0 -0 -0 -0 -0 -0 -0 -0 -0 0 0 0 0 0 0 0 0 0
0 0 0 0 0 0 0 0 0 -0 -0 -0 -0 0 0 0 0 0 0 0 0 0
0 -0 0 0 0 0 0 0 0 -0 -0 0 0 0 0 0 -0 -0 0 0 0 -0
0 -0 -0 0 -0 0 0 -0 0 -0 0 -0 0 0 0 0 0 0 0 0 0 0
-0 -0 -0 -0 -0 -0 0 0 0 0 0 0 0 0 0 0 0 0 0 0 0 0
Wind_Speed_500mb
54 62 64 64 65 67 60 55 55 56 55 53 52 52 52 55 54 52 54 58 54 54
66 67 70 66 61 61 64 64 65 62 59 56 58 62 64 66 63 63 59 60 61 59
67 63 64 59 55 56 60 62 61 62 65 68 69 70 75 79 78 74 68 61 63 62
82 78 77 70 58 53 54 57 63 69 73 77 80 80 84 90 89 83 72 63 62 64
91 97 73 75 77 77 78 75 75 74 79 81 82 85 91 97 91 80 69 65 58 61
74 71 63 68 67 69 68 72 79 81 83 86 83 83 86 85 75 66 62 61 55 53
79 77 77 65 63 70 77 82 77 76 77 77 78 79 78 74 64 58 56 53 51 50
66 69 72 71 73 68 65 66 63 65 65 65 67 71 69 63 53 52 51 50 52 48
65 62 62 60 62 66 65 62 61 58 58 62 65 66 61 50 51 49 50 53 50 47
56 62 65 64 60 56 58 56 55 53 55 67 71 64 49 44 48 47 49 51 48 43
58 56 55 54 53 49 46 48 53 61 70 66 65 45 41 38 42 49 51 52 46 42
52 50 50 50 47 46 50 52 55 57 59 52 40 37 37 40 44 48 48 39 35 43
47 43 43 44 43 49 50 47 48 39 34 33 37 30 30 31 40 40 40 39 38 38
39 35 35 33 28 30 27 26 28 28 26 25 19 20 24 19 22 29 35 35 36 30
Wind_Direction_500mb
307 300 294 289 285 278 268 271 279 280 285 291 299 306 310 314 317 299 283 275 267 267
304 301 300 293 281 269 264 267 271 274 274 280 289 298 303 306 308 310 289 274 267 263
289 293 295 289 277 264 260 260 261 265 273 280 287 293 298 302 303 302 295 277 267 264
281 278 277 277 273 272 270 269 270 273 277 281 287 291 294 296 297 296 292 277 268 265
285 287 272 272 276 277 278 278 280 281 283 286 288 292 293 293 290 289 282 273 268 264
291 290 280 276 279 276 274 279 282 283 283 284 287 290 290 287 283 277 272 270 266 264
290 286 284 283 274 274 278 282 280 279 280 279 280 281 283 282 278 273 268 267 264 261
296 290 285 283 280 282 284 280 278 278 275 275 276 278 280 277 272 267 264 260 260 255
298 295 291 284 280 284 281 281 279 272 272 275 278 280 279 271 270 264 263 263 259 249
300 286 286 286 286 284 281 277 271 270 274 277 280 281 268 262 261 260 262 266 261 246
307 298 294 288 283 282 281 276 272 275 278 278 276 269 266 260 256 258 259 261 254 235
306 299 295 284 280 283 284 280 275 276 274 276 272 274 264 251 265 262 258 246 220 222
307 303 295 287 286 282 282 280 278 273 268 273 278 267 268 270 261 247 229 230 227 215
312 309 303 299 295 287 278 273 274 276 282 280 282 280 275 245 226 220 219 208 196 193
Wind_Speed_850mb
54 62 64 64 65 67 60 55 55 56 55 53 52 52 52 55 54 52 54 58 54 54
66 67 70 66 61 61 64 64 65 62 59 56 58 62 64 66 63 63 59 60 61 59
67 63 64 59 55 56 60 62 61 62 65 68 69 70 75 79 78 74 68 61 63 62
82 78 77 70 58 53 54 57 63 69 73 77 80 80 84 90 89 83 72 63 62 64
91 97 73 75 77 77 78 75 75 74 79 81 82 85 91 97 91 80 69 65 58 61
74 71 63 68 67 69 68 72 79 81 83 86 83 83 86 85 75 66 62 61 55 53
79 77 77 65 63 70 77 82 77 76 77 77 78 79 78 74 64 58 56 53 51 50
66 69 72 71 73 68 65 66 63 65 65 65 67 71 69 63 53 52 51 50 52 48
65 62 62 60 62 66 65 62 61 58 58 62 65 66 61 50 51 49 50 53 50 47
56 62 65 64 60 56 58 56 55 53 55 67 71 64 49 44 48 47 49 51 48 43
58 56 55 54 53 49 46 48 53 61 70 66 65 45 41 38 42 49 51 52 46 42
52 50 50 50 47 46 50 52 55 57 59 52 40 37 37 40 44 48 48 39 35 43
47 43 43 44 43 49 50 47 48 39 34 33 37 30 30 31 40 40 40 39 38 38
39 35 35 33 28 30 27 26 28 28 26 25 19 20 24 19 22 29 35 35 36 30
Wind_Direction_850mb
307 300 294 289 285 278 268 271 279 280 285 291 299 306 310 314 317 299 283 275 267 267
304 301 300 293 281 269 264 267 271 274 274 280 289 298 303 306 308 310 289 274 267 263
289 293 295 289 277 264 260 260 261 265 273 280 287 293 298 302 303 302 295 277 267 264
281 278 277 277 273 272 270 269 270 273 277 281 287 291 294 296 297 296 292 277 268 265
285 287 272 272 276 277 278 278 280 281 283 286 288 292 293 293 290 289 282 273 268 264
291 290 280 276 279 276 274 279 282 283 283 284 287 290 290 287 283 277 272 270 266 264
290 286 284 283 274 274 278 282 280 279 280 279 280 281 283 282 278 273 268 267 264 261
296 290 285 283 280 282 284 280 278 278 275 275 276 278 280 277 272 267 264 260 260 255
298 295 291 284 280 284 281 281 279 272 272 275 278 280 279 271 270 264 263 263 259 249
300 286 286 286 286 284 281 277 271 270 274 277 280 281 268 262 261 260 262 266 261 246
307 298 294 288 283 282 281 276 272 275 278 278 276 269 266 260 256 258 259 261 254 235
306 299 295 284 280 283 284 280 275 276 274 276 272 274 264 251 265 262 258 246 220 222
307 303 295 287 286 282 282 280 278 273 268 273 278 267 268 270 261 247 229 230 227 215
312 309 303 299 295 287 278 273 274 276 282 280 282 280 275 245 226 220 219 208 196 193